Location: Pandora
(40.9481°N, 83.9611°W)
Time: 13:39:32
(UTC-04:00)

Nauka - Pass Details

Date: 26 September 2021
Orbit: 417 x 423 km, 51.6° (Epoch: 24 October)

Event Time Altitude Azimuth Distance (km) Brightness Sun altitude
Rises 21:09:41 0° 308° (NW) 2,365 ? -20.3°
Reaches altitude 10° 21:12:29 10° 333° (NNW) 1,502 ? -20.8°
Maximum altitude 21:14:31 15° 10° (N) 1,238 ? -21.1°
Enters shadow 21:14:38 15° 13° (NNE) 1,239 ? -21.2°
